Date String (YYYY-MM-DD hh:mm:ss) UTC,Instrument flags,Ambient pressure (hPa),Sample flow (lpm),Bypass flow (lpm),Sample temperature (°C),Ambient temperature (°C),ASC tube jacket temperature (°C),LED temperature (°C),Box temperature (°C),Sample RH (%),Span deviation,Mass concentration (μg/m³),Mass concentration (μg/m³),Mass concentration (μg/m³)
DateTimeUTC,F1_M11,P_M11,Q1_M11,Q2_M11,T1_M11,T2_M11,T3_M11,T4_M11,T5_M11,U1_M11,ZSPAN_M11,X0_M11,X2_M11,X1_M11
2022-09-16 04:00:00,,0828.1,5.00,0.00,30.3,29.1,00.0,39.0,32.1,27.3,0000.0,0012.39,0004.72,0003.80
2022-09-16 04:01:00,,0828.2,5.00,0.00,30.3,29.1,00.0,39.0,32.1,27.3,0000.0,0012.66,0004.75,0003.82
2022-09-16 04:02:00,,0828.2,4.99,0.00,30.3,29.1,00.0,39.0,32.2,27.4,0000.0,0013.05,0004.77,0003.85
2022-09-16 04:03:00,,0828.2,5.01,0.00,30.3,29.1,00.0,39.0,32.2,27.1,0000.0,0013.19,0004.81,0003.91
2022-09-16 04:04:00,,0828.2,4.99,0.00,30.4,29.2,00.0,39.0,32.2,26.8,0000.0,0013.82,0004.81,0003.94
2022-09-16 04:05:00,,0828.3,5.01,0.00,30.4,28.3,00.0,39.0,32.2,26.4,0000.0,0014.91,0004.87,0003.95
2022-09-16 04:06:00,,0828.2,5.01,0.00,30.4,27.0,00.0,39.0,32.1,26.2,0000.0,0015.08,0004.88,0003.89
2022-09-16 04:07:00,,0828.2,5.00,0.00,30.3,26.7,00.0,38.9,32.0,26.3,0000.0,0014.96,0004.87,0003.85
2022-09-16 04:08:00,,0828.2,5.01,0.00,30.2,26.9,00.0,38.9,31.8,26.3,0000.0,0014.26,0004.78,0003.78
2022-09-16 04:09:00,,0828.3,4.99,0.00,30.1,27.3,00.0,38.9,31.7,26.4,0000.0,0013.64,0004.73,0003.72
2022-09-16 04:10:00,,0828.2,4.99,0.00,30.1,27.5,00.0,38.8,31.7,26.5,0000.0,0013.45,0004.61,0003.65
2022-09-16 04:11:00,,0828.2,5.00,0.00,30.0,27.8,00.0,38.8,31.8,26.6,0000.0,0013.81,0004.48,0003.56
2022-09-16 04:12:00,,0828.2,5.01,0.00,30.0,28.0,00.0,38.8,31.7,26.6,0000.0,0013.67,0004.42,0003.48
2022-09-16 04:13:00,,0828.2,4.99,0.00,30.0,28.2,00.0,38.8,31.8,26.7,0000.0,0013.65,0004.36,0003.39
2022-09-16 04:14:00,,0828.2,5.01,0.00,30.0,28.3,00.0,38.8,31.8,26.6,0000.0,0012.91,0004.27,0003.28
2022-09-16 04:15:00,,0828.2,5.00,0.00,30.0,28.4,00.0,38.8,31.8,26.6,0000.0,0012.61,0004.16,0003.19
2022-09-16 04:16:00,,0828.3,5.00,0.00,30.0,28.5,00.0,38.8,31.8,26.5,0000.0,0011.81,0004.08,0003.07
2022-09-16 04:17:00,,0828.2,5.01,0.00,30.0,28.6,00.0,38.8,31.9,26.3,0000.0,0011.58,0004.03,0002.99
2022-09-16 04:18:00,,0828.2,5.00,0.00,30.1,28.7,00.0,38.8,31.9,26.2,0000.0,0011.52,0003.96,0002.91
2022-09-16 04:19:00,,0828.2,5.00,0.00,30.1,28.8,00.0,38.8,32.0,26.2,0000.0,0011.55,0003.92,0002.84
2022-09-16 04:20:00,,0828.2,4.99,0.00,30.1,28.8,00.0,38.8,32.0,26.2,0000.0,0011.65,0003.87,0002.82
2022-09-16 04:21:00,,0828.3,4.99,0.00,30.1,28.8,00.0,38.8,32.0,26.1,0000.0,0012.61,0003.83,0002.77
2022-09-16 04:22:00,,0828.3,5.02,0.00,30.1,28.9,00.0,38.8,32.0,26.1,0000.0,0012.61,0003.83,0002.72
2022-09-16 04:23:00,,0828.3,5.00,0.00,30.2,28.9,00.0,38.9,32.0,26.1,0000.0,0012.41,0003.79,0002.68
2022-09-16 04:24:00,,0828.3,4.99,0.00,30.2,28.9,00.0,38.9,32.0,26.1,0000.0,0012.15,0003.78,0002.62
2022-09-16 04:25:00,,0828.3,5.01,0.00,30.2,28.9,00.0,38.9,32.1,26.0,0000.0,0012.12,0003.80,0002.58
2022-09-16 04:26:00,,0828.2,5.00,0.00,30.2,29.0,00.0,38.9,32.1,26.1,0000.0,0012.18,0003.81,0002.52
2022-09-16 04:27:00,,0828.3,5.00,0.00,30.2,29.0,00.0,38.9,32.1,26.2,0000.0,0011.81,0003.82,0002.50
2022-09-16 04:28:00,,0828.3,4.99,0.00,30.3,29.1,00.0,38.9,32.1,26.3,0000.0,0011.99,0003.81,0002.54
2022-09-16 04:29:00,,0828.4,5.02,0.00,30.3,29.1,00.0,38.9,32.1,26.2,0000.0,0011.75,0003.81,0002.59
2022-09-16 04:30:00,,0828.3,4.99,0.00,30.3,29.1,00.0,39.0,32.2,26.3,0000.0,0011.61,0003.82,0002.64
2022-09-16 04:31:00,,0828.3,5.01,0.00,30.3,29.1,00.0,39.0,32.2,26.3,0000.0,0012.21,0003.89,0002.69
2022-09-16 04:32:00,,0828.3,5.00,0.00,30.4,29.2,00.0,39.0,32.2,26.3,0000.0,0011.24,0003.96,0002.76
2022-09-16 04:33:00,,0828.4,5.00,0.00,30.4,29.2,00.0,39.0,32.2,26.3,0000.0,0011.01,0003.99,0002.83
2022-09-16 04:34:00,,0828.4,4.99,0.00,30.4,29.2,00.0,39.1,32.3,26.3,0000.0,0011.12,0004.05,0002.91
2022-09-16 04:35:00,,0828.5,5.00,0.00,30.4,29.2,00.0,39.1,32.3,26.2,0000.0,0011.69,0004.04,0002.97
2022-09-16 04:36:00,,0828.4,5.00,0.00,30.4,29.2,00.0,39.1,32.3,26.2,0000.0,0012.44,0003.99,0003.04
2022-09-16 04:37:00,,0828.4,5.00,0.00,30.5,29.3,00.0,39.1,32.3,26.2,0000.0,0012.64,0003.99,0003.12
2022-09-16 04:38:00,,0828.4,5.00,0.00,30.5,28.5,00.0,39.1,32.3,26.1,0000.0,0013.14,0003.99,0003.15
2022-09-16 04:39:00,,0828.5,5.00,0.00,30.4,27.0,00.0,39.1,32.2,26.1,0000.0,0012.73,0004.00,0003.17
2022-09-16 04:40:00,,0828.3,5.01,0.00,30.4,26.7,00.0,39.0,32.1,26.1,0000.1,0012.85,0004.03,0003.19
2022-09-16 04:41:00,,0828.3,5.00,0.00,30.3,26.9,00.0,39.0,31.9,26.3,-000.0,0012.99,0004.09,0003.19
2022-09-16 04:42:00,,0828.3,5.01,0.00,30.2,27.3,00.0,38.9,31.7,26.5,0000.2,0013.00,0004.08,0003.19
2022-09-16 04:43:00,,0828.3,5.00,0.00,30.1,27.6,00.0,38.9,31.7,26.6,0000.4,0012.97,0004.12,0003.19
2022-09-16 04:44:00,,0828.3,4.99,0.00,30.1,27.8,00.0,38.9,31.8,26.7,0000.0,0013.34,0004.11,0003.18
2022-09-16 04:45:00,,0828.3,5.00,0.00,30.1,28.0,00.0,38.9,31.8,26.7,0000.0,0012.75,0004.08,0003.17
2022-09-16 04:46:00,,0828.3,5.00,0.00,30.1,28.2,00.0,38.9,31.8,26.8,0000.0,0012.36,0004.07,0003.16
2022-09-16 04:47:00,,0828.3,5.00,0.00,30.1,28.3,00.0,38.9,31.9,26.8,0000.0,0011.41,0004.07,0003.16
2022-09-16 04:48:00,,0828.3,4.99,0.00,30.1,28.4,00.0,38.9,31.9,26.9,0000.0,0010.59,0004.08,0003.15
2022-09-16 04:49:00,,0828.3,5.00,0.00,30.1,28.5,00.0,38.9,31.9,26.8,0000.0,0010.93,0004.13,0003.15
2022-09-16 04:50:00,,0828.3,5.00,0.00,30.1,28.6,00.0,38.9,31.9,26.8,0000.0,0010.67,0004.11,0003.16
2022-09-16 04:51:00,,0828.3,4.99,0.00,30.1,28.7,00.0,38.9,32.0,26.8,0000.0,0011.26,0004.10,0003.18
2022-09-16 04:52:00,,0828.3,5.01,0.00,30.1,28.7,00.0,38.9,32.0,26.8,0000.0,0013.12,0004.13,0003.19
2022-09-16 04:53:00,,0828.3,4.99,0.00,30.1,28.8,00.0,38.9,32.0,26.8,0000.0,0013.29,0004.12,0003.21
2022-09-16 04:54:00,,0828.3,4.99,0.00,30.2,28.8,00.0,38.9,32.0,26.8,0000.0,0014.32,0004.09,0003.23
2022-09-16 04:55:00,,0828.3,5.01,0.00,30.2,28.8,00.0,38.9,32.0,26.7,0000.0,0014.27,0004.09,0003.25
2022-09-16 04:56:00,,0828.3,4.99,0.00,30.2,28.9,00.0,38.9,32.0,26.5,0000.0,0014.57,0004.08,0003.24
2022-09-16 04:57:00,,0828.3,4.99,0.00,30.2,28.9,00.0,38.9,32.1,26.5,0000.0,0015.30,0004.11,0003.25
2022-09-16 04:58:00,,0828.3,5.01,0.00,30.2,28.9,00.0,38.9,32.1,26.4,0000.0,0015.56,0004.18,0003.25
2022-09-16 04:59:00,,0828.3,4.99,0.00,30.2,29.0,00.0,38.9,32.1,26.4,0000.0,0015.61,0004.20,0003.25
